Flag for Germany Weather past 2 weeks in Neuruppin, Brandenburg, Germany

Now
51 °F

Passing clouds.


Feels Like: 51 °F
Forecast: 49 / 64 °F
Wind: 2 mph from Southwest

Location: Neuruppin

Current Time: Aug 23, 2014 at 6:26:14 AM

Latest Report: Aug 23, 2014 at 6:00 AM


Visibility: 6 mi

Pressure: 29.85 "Hg

Humidity: 92%

Dew point: 49 °F

Location of NeuruppinLocation

Historic Weather in Neuruppin — Graph

°F

Neuruppin temperature yesterday

Maximum temperature yesterday: 66 °F (at 3:00 PM)
Minimum temperature yesterday: 47 °F (at 2:00 AM)
Average temperature yesterday: 58 °F

Past Weeks' High & Low Weather Summary

 TemperatureHumidityPressure
High78 °F (Aug 9, 4:00 PM)98% (Aug 8, 7:00 AM)30.01 "Hg (Aug 8, 7:00 AM)
Low46 °F (Aug 21, 6:00 AM)46% (Aug 11, 4:00 PM)29.58 "Hg (Aug 18, 3:00 PM)
Average61 °F75%29.84 "Hg
* Reported Aug 8 4:00 AM — Aug 23 4:00 AM, Neuruppin, Weather by CustomWeather, © 2014

Note: Actual official high and low records may vary slightly from our data, if they occured in-between our weather recording intervals... More about our weather records

Advertising

Neuruppin weather history for previous 24 hours

 ConditionsComfort  
Time TempWeatherWind HumidityBarometerVisibility
4:00 AM
Aug 23
53 °FOvercast.2 mph88%29.85 "Hg6 mi
3:00 AM55 °FOvercast.2 mph83%29.85 "Hg6 mi
2:00 AM56 °FOvercast.2 mph79%29.85 "Hg6 mi
1:00 AM57 °FOvercast.N/A77%29.85 "Hg6 mi
12:00 AM57 °FOvercast.2 mph73%29.86 "Hg6 mi
11:00 PM
Aug 22
58 °FOvercast.1 mph71%29.85 "Hg6 mi
10:00 PM60 °FOvercast.2 mph60%29.85 "Hg6 mi
9:00 PM59 °FOvercast.2 mph71%29.85 "Hg6 mi
8:00 PM62 °FOvercast.1 mph63%29.85 "Hg6 mi
7:00 PM65 °FOvercast.3 mph52%29.85 "Hg6 mi
6:00 PM66 °FPartly sunny.3 mph51%29.86 "Hg6 mi
5:00 PM66 °FScattered clouds.N/A48%29.87 "Hg6 mi
4:00 PM66 °FOvercast.N/A49%29.88 "Hg6 mi
3:00 PM66 °FScattered clouds.5 mph47%29.89 "Hg6 mi
2:00 PM65 °FOvercast.N/A48%29.90 "Hg6 mi
1:00 PM66 °FSunny.N/A51%29.91 "Hg6 mi
12:00 PM64 °FPartly sunny.N/A56%29.92 "Hg6 mi
11:00 AM63 °FOvercast.3 mph60%29.93 "Hg6 mi
10:00 AM58 °FOvercast.2 mph75%29.93 "Hg6 mi
9:00 AM54 °FOvercast.2 mph81%29.93 "Hg6 mi
8:00 AM53 °FOvercast.2 mph82%29.93 "Hg6 mi
7:00 AM53 °FOvercast.2 mph83%29.93 "Hg6 mi
6:00 AM50 °FOvercast.2 mph89%29.94 "Hg6 mi
Weather by CustomWeather, © 2014

See weather overviewHow to use our weather pages